Time,TemperatureF,DewpointF,PressureIn,WindDirection,WindDirectionDegrees,WindSpeedMPH,WindSpeedGustMPH,Humidity,HourlyPrecipIn,Conditions,Clouds,dailyrainin,SoftwareType,DateUTC
2013-11-22 00:04:00,52.9,28.0,30.18,North,-999,0.0,0.0,38,0.00,,,-99.99,FreeWX 2.04,2013-11-22 05:04:00,
2013-11-22 00:14:00,52.5,27.7,30.21,North,-999,0.0,0.0,38,0.00,,,-99.99,FreeWX 2.04,2013-11-22 05:14:00,
2013-11-22 00:24:00,52.3,28.0,30.21,North,-999,0.0,0.0,39,0.00,,,-99.99,FreeWX 2.04,2013-11-22 05:24:00,
2013-11-22 00:34:00,52.2,28.0,30.21,North,-999,0.0,0.0,39,0.00,,,-99.99,FreeWX 2.04,2013-11-22 05:34:00,
2013-11-22 00:44:00,52.2,29.1,30.21,North,-999,0.0,0.0,41,0.00,,,-99.99,FreeWX 2.04,2013-11-22 05:44:00,
2013-11-22 00:54:00,52.2,29.1,30.21,North,-999,0.0,0.0,41,0.00,,,-99.99,FreeWX 2.04,2013-11-22 05:54:00,
2013-11-22 01:04:00,52.3,30.0,30.21,North,-999,0.0,0.0,42,0.00,,,-99.99,FreeWX 2.04,2013-11-22 06:04:00,
2013-11-22 01:14:00,52.5,30.0,30.21,North,-999,0.0,0.0,42,0.00,,,-99.99,FreeWX 2.04,2013-11-22 06:14:00,
2013-11-22 01:24:00,52.7,30.9,30.21,North,-999,0.0,0.0,43,0.00,,,-99.99,FreeWX 2.04,2013-11-22 06:24:00,
2013-11-22 01:34:00,52.7,31.5,30.21,North,-999,0.0,0.0,44,0.00,,,-99.99,FreeWX 2.04,2013-11-22 06:34:00,
2013-11-22 01:44:00,52.5,31.3,30.21,North,-999,0.0,0.0,44,0.00,,,-99.99,FreeWX 2.04,2013-11-22 06:44:00,
2013-11-22 01:54:00,53.1,32.4,30.21,North,-999,0.0,0.0,45,0.00,,,-99.99,FreeWX 2.04,2013-11-22 06:54:00,
2013-11-22 02:04:00,53.6,32.7,30.21,North,-999,0.0,0.0,45,0.00,,,-99.99,FreeWX 2.04,2013-11-22 07:04:00,
2013-11-22 02:14:00,54.0,33.1,30.21,North,-999,0.0,0.0,45,0.00,,,-99.99,FreeWX 2.04,2013-11-22 07:14:00,
2013-11-22 02:24:00,54.1,33.3,30.21,North,-999,0.0,0.0,45,0.00,,,-99.99,FreeWX 2.04,2013-11-22 07:24:00,
2013-11-22 02:34:00,54.3,33.4,30.21,North,-999,0.0,0.0,45,0.00,,,-99.99,FreeWX 2.04,2013-11-22 07:34:00,
2013-11-22 02:44:00,54.1,33.8,30.21,North,-999,0.0,0.0,46,0.00,,,-99.99,FreeWX 2.04,2013-11-22 07:44:00,
2013-11-22 02:54:00,54.1,33.8,30.21,North,-999,0.0,0.0,46,0.00,,,-99.99,FreeWX 2.04,2013-11-22 07:54:00,
2013-11-22 03:04:00,54.1,34.3,30.21,North,-999,0.0,0.0,47,0.00,,,-99.99,FreeWX 2.04,2013-11-22 08:04:00,
2013-11-22 03:14:00,54.3,34.5,30.21,North,-999,0.0,0.0,47,0.00,,,-99.99,FreeWX 2.04,2013-11-22 08:14:00,
2013-11-22 03:24:00,54.3,35.1,30.21,North,-999,0.0,0.0,48,0.00,,,-99.99,FreeWX 2.04,2013-11-22 08:24:00,
2013-11-22 03:34:00,54.9,35.6,30.21,North,-999,0.0,0.0,48,0.00,,,-99.99,FreeWX 2.04,2013-11-22 08:34:00,
2013-11-22 03:44:00,54.9,36.5,30.21,North,-999,0.0,0.0,50,0.00,,,-99.99,FreeWX 2.04,2013-11-22 08:44:00,
2013-11-22 03:54:00,54.9,37.0,30.21,North,-999,0.0,0.0,51,0.00,,,-99.99,FreeWX 2.04,2013-11-22 08:54:00,
2013-11-22 04:04:00,54.9,37.6,30.21,North,-999,0.0,0.0,52,0.00,,,-99.99,FreeWX 2.04,2013-11-22 09:04:00,
2013-11-22 04:14:00,54.9,38.1,30.21,North,-999,0.0,0.0,53,0.00,,,-99.99,FreeWX 2.04,2013-11-22 09:14:00,
2013-11-22 04:24:00,54.9,39.0,30.21,North,-999,0.0,0.0,55,0.00,,,-99.99,FreeWX 2.04,2013-11-22 09:24:00,
2013-11-22 04:34:00,54.9,39.4,30.21,North,-999,0.0,0.0,56,0.00,,,-99.99,FreeWX 2.04,2013-11-22 09:34:00,
2013-11-22 04:44:00,54.9,39.9,30.21,North,-999,0.0,0.0,57,0.00,,,-99.99,FreeWX 2.04,2013-11-22 09:44:00,
2013-11-22 04:54:00,54.9,40.3,30.21,North,-999,0.0,0.0,58,0.00,,,-99.99,FreeWX 2.04,2013-11-22 09:54:00,
2013-11-22 05:04:00,54.7,40.6,30.21,North,-999,0.0,0.0,59,0.00,,,-99.99,FreeWX 2.04,2013-11-22 10:04:00,
2013-11-22 05:14:00,54.5,41.4,30.21,North,-999,0.0,0.0,61,0.00,,,-99.99,FreeWX 2.04,2013-11-22 10:14:00,
2013-11-22 05:24:00,54.1,41.0,30.21,North,-999,0.0,0.0,61,0.00,,,-99.99,FreeWX 2.04,2013-11-22 10:24:00,
2013-11-22 05:34:00,54.1,41.4,30.21,North,-999,0.0,0.0,62,0.00,,,-99.99,FreeWX 2.04,2013-11-22 10:34:00,
2013-11-22 05:44:00,53.8,41.0,30.21,North,-999,0.0,0.0,62,0.04,,,-99.99,FreeWX 2.04,2013-11-22 10:44:00,
2013-11-22 05:54:00,53.6,40.8,30.21,North,-999,0.0,0.0,62,0.04,,,-99.99,FreeWX 2.04,2013-11-22 10:54:00,
2013-11-22 06:04:00,53.6,41.7,30.21,North,-999,0.0,0.0,64,0.04,,,-99.99,FreeWX 2.04,2013-11-22 11:04:00,
2013-11-22 06:14:00,53.6,42.1,30.21,North,-999,0.0,0.0,65,0.04,,,-99.99,FreeWX 2.04,2013-11-22 11:14:00,
2013-11-22 06:24:00,53.6,42.1,30.21,North,-999,0.0,0.0,65,0.04,,,-99.99,FreeWX 2.04,2013-11-22 11:24:00,
2013-11-22 06:34:00,53.6,43.0,30.21,North,-999,0.0,0.0,67,0.04,,,-99.99,FreeWX 2.04,2013-11-22 11:34:00,
2013-11-22 06:44:00,53.8,43.5,30.21,North,-999,0.0,0.0,68,0.00,,,-99.99,FreeWX 2.04,2013-11-22 11:44:00,
2013-11-22 06:54:00,54.0,44.1,30.21,North,-999,0.0,0.0,69,0.00,,,-99.99,FreeWX 2.04,2013-11-22 11:54:00,
2013-11-22 07:04:00,54.0,44.1,30.21,North,-999,0.0,0.0,69,0.00,,,-99.99,FreeWX 2.04,2013-11-22 12:04:00,
2013-11-22 07:14:00,54.0,44.1,30.21,North,-999,0.0,0.0,69,0.00,,,-99.99,FreeWX 2.04,2013-11-22 12:14:00,
2013-11-22 07:24:00,53.8,44.2,30.21,North,-999,0.0,0.0,70,0.00,,,-99.99,FreeWX 2.04,2013-11-22 12:24:00,
2013-11-22 07:34:00,54.0,44.4,30.21,North,-999,0.0,0.0,70,0.00,,,-99.99,FreeWX 2.04,2013-11-22 12:34:00,
2013-11-22 07:44:00,54.1,44.6,30.21,North,-999,0.0,0.0,70,0.00,,,-99.99,FreeWX 2.04,2013-11-22 12:44:00,
2013-11-22 07:54:00,54.0,44.4,30.21,North,-999,0.0,0.0,70,0.00,,,-99.99,FreeWX 2.04,2013-11-22 12:54:00,
2013-11-22 08:04:00,54.0,44.8,30.21,North,-999,0.0,0.0,71,0.00,,,-99.99,FreeWX 2.04,2013-11-22 13:04:00,
2013-11-22 08:14:00,54.1,45.0,30.21,North,-999,0.0,0.0,71,0.00,,,-99.99,FreeWX 2.04,2013-11-22 13:14:00,
2013-11-22 08:24:00,54.5,46.0,30.21,North,-999,0.0,0.0,73,0.00,,,-99.99,FreeWX 2.04,2013-11-22 13:24:00,
2013-11-22 08:34:00,54.3,45.9,30.21,North,-999,0.0,0.0,73,0.00,,,-99.99,FreeWX 2.04,2013-11-22 13:34:00,
2013-11-22 08:44:00,54.5,46.0,30.18,North,-999,0.0,4.0,73,0.00,,,-99.99,FreeWX 2.04,2013-11-22 13:44:00,
2013-11-22 08:54:00,54.5,46.0,30.21,North,-999,0.0,0.0,73,0.00,,,-99.99,FreeWX 2.04,2013-11-22 13:54:00,
2013-11-22 09:04:00,54.9,46.4,30.21,North,-999,0.0,0.0,73,0.00,,,-99.99,FreeWX 2.04,2013-11-22 14:04:00,
2013-11-22 09:14:00,55.2,46.8,30.18,North,-999,0.0,0.0,73,0.00,,,-99.99,FreeWX 2.04,2013-11-22 14:14:00,
2013-11-22 09:24:00,55.6,47.5,30.18,North,-999,0.0,0.0,74,0.00,,,-99.99,FreeWX 2.04,2013-11-22 14:24:00,
2013-11-22 09:34:00,55.8,47.7,30.18,North,-999,0.0,0.0,74,0.00,,,-99.99,FreeWX 2.04,2013-11-22 14:34:00,
2013-11-22 09:44:00,55.8,47.7,30.18,North,-999,0.0,2.7,74,0.00,,,-99.99,FreeWX 2.04,2013-11-22 14:44:00,
2013-11-22 09:54:00,56.1,48.4,30.18,North,-999,0.0,0.0,75,0.00,,,-99.99,FreeWX 2.04,2013-11-22 14:54:00,
2013-11-22 10:04:00,56.3,48.2,30.18,North,-999,0.0,3.1,74,0.00,,,-99.99,FreeWX 2.04,2013-11-22 15:04:00,
2013-11-22 10:14:00,56.7,48.7,30.18,North,-999,0.0,0.0,75,0.00,,,-99.99,FreeWX 2.04,2013-11-22 15:14:00,
2013-11-22 10:24:00,56.8,48.9,30.18,North,-999,0.0,0.0,75,0.00,,,-99.99,FreeWX 2.04,2013-11-22 15:24:00,
2013-11-22 10:34:00,57.0,49.1,30.18,North,-999,0.0,0.0,75,0.00,,,-99.99,FreeWX 2.04,2013-11-22 15:34:00,
2013-11-22 10:44:00,57.2,49.3,30.18,North,-999,0.0,0.0,75,0.00,,,-99.99,FreeWX 2.04,2013-11-22 15:44:00,
2013-11-22 10:54:00,57.4,49.5,30.18,North,-999,0.0,0.0,75,0.00,,,-99.99,FreeWX 2.04,2013-11-22 15:54:00,
2013-11-22 11:04:00,57.6,49.6,30.18,North,-999,0.0,2.7,75,0.04,,,-99.99,FreeWX 2.04,2013-11-22 16:04:00,
2013-11-22 11:14:00,57.6,49.6,30.18,North,-999,0.0,0.0,75,0.04,,,-99.99,FreeWX 2.04,2013-11-22 16:14:00,
2013-11-22 11:24:00,57.6,50.0,30.18,North,-999,0.0,2.7,76,0.04,,,-99.99,FreeWX 2.04,2013-11-22 16:24:00,
2013-11-22 11:34:00,57.9,50.4,30.18,North,-999,0.0,3.1,76,0.04,,,-99.99,FreeWX 2.04,2013-11-22 16:34:00,
2013-11-22 11:44:00,57.9,50.7,30.18,North,-999,0.0,3.1,77,0.04,,,-99.99,FreeWX 2.04,2013-11-22 16:44:00,
2013-11-22 11:54:00,57.9,50.7,30.18,North,-999,0.0,3.6,77,0.04,,,-99.99,FreeWX 2.04,2013-11-22 16:54:00,
2013-11-22 12:04:00,58.1,50.9,30.18,North,-999,0.0,0.0,77,0.00,,,-99.99,FreeWX 2.04,2013-11-22 17:04:00,
2013-11-22 12:14:00,58.3,51.1,30.15,North,-999,0.0,0.0,77,0.00,,,-99.99,FreeWX 2.04,2013-11-22 17:14:00,
2013-11-22 12:24:00,58.5,51.3,30.15,North,-999,0.0,2.7,77,0.00,,,-99.99,FreeWX 2.04,2013-11-22 17:24:00,
2013-11-22 12:34:00,58.5,51.6,30.15,North,-999,0.0,3.1,78,0.00,,,-99.99,FreeWX 2.04,2013-11-22 17:34:00,
2013-11-22 12:44:00,58.5,51.6,30.15,North,-999,0.0,4.9,78,0.00,,,-99.99,FreeWX 2.04,2013-11-22 17:44:00,
2013-11-22 12:54:00,58.5,51.6,30.15,North,-999,0.0,3.1,78,0.04,,,-99.99,FreeWX 2.04,2013-11-22 17:54:00,
2013-11-22 13:04:00,58.5,51.6,30.15,North,-999,0.0,0.0,78,0.04,,,-99.99,FreeWX 2.04,2013-11-22 18:04:00,
2013-11-22 13:14:00,58.5,51.6,30.15,North,-999,0.0,3.1,78,0.04,,,-99.99,FreeWX 2.04,2013-11-22 18:14:00,
2013-11-22 13:24:00,58.5,51.6,30.15,North,-999,0.0,0.0,78,0.04,,,-99.99,FreeWX 2.04,2013-11-22 18:24:00,
2013-11-22 13:34:00,58.5,51.6,30.15,North,-999,0.0,0.0,78,0.04,,,-99.99,FreeWX 2.04,2013-11-22 18:34:00,
2013-11-22 13:44:00,58.3,51.4,30.15,North,-999,0.0,4.5,78,0.04,,,-99.99,FreeWX 2.04,2013-11-22 18:44:00,
2013-11-22 13:54:00,58.1,51.3,30.15,North,-999,0.0,0.0,78,0.00,,,-99.99,FreeWX 2.04,2013-11-22 18:54:00,
2013-11-22 14:04:00,58.1,51.3,30.15,North,-999,0.0,0.0,78,0.00,,,-99.99,FreeWX 2.04,2013-11-22 19:04:00,
2013-11-22 14:14:00,58.1,50.9,30.12,North,-999,0.0,3.6,77,0.00,,,-99.99,FreeWX 2.04,2013-11-22 19:14:00,
2013-11-22 14:24:00,58.1,51.3,30.12,North,-999,0.0,0.0,78,0.00,,,-99.99,FreeWX 2.04,2013-11-22 19:24:00,
2013-11-22 14:34:00,57.9,51.1,30.12,North,-999,0.0,0.0,78,0.00,,,-99.99,FreeWX 2.04,2013-11-22 19:34:00,
2013-11-22 14:44:00,57.9,50.7,30.12,North,-999,0.0,2.7,77,0.00,,,-99.99,FreeWX 2.04,2013-11-22 19:44:00,
2013-11-22 14:54:00,57.7,50.5,30.12,North,-999,0.0,0.0,77,0.04,,,-99.99,FreeWX 2.04,2013-11-22 19:54:00,
2013-11-22 15:04:00,57.7,50.5,30.12,North,-999,0.0,0.0,77,0.04,,,-99.99,FreeWX 2.04,2013-11-22 20:04:00,
2013-11-22 15:14:00,57.6,50.4,30.12,North,-999,0.0,0.0,77,0.04,,,-99.99,FreeWX 2.04,2013-11-22 20:14:00,
2013-11-22 15:24:00,57.6,50.4,30.12,North,-999,0.0,0.0,77,0.04,,,-99.99,FreeWX 2.04,2013-11-22 20:24:00,
2013-11-22 15:34:00,57.4,50.2,30.12,North,-999,0.0,0.0,77,0.04,,,-99.99,FreeWX 2.04,2013-11-22 20:34:00,
2013-11-22 15:44:00,57.2,50.0,30.15,North,-999,0.0,0.0,77,0.00,,,-99.99,FreeWX 2.04,2013-11-22 20:44:00,
2013-11-22 15:54:00,56.8,49.3,30.15,North,-999,0.0,0.0,76,0.04,,,-99.99,FreeWX 2.04,2013-11-22 20:54:00,
2013-11-22 16:04:00,56.5,48.9,30.15,North,-999,0.0,2.7,76,0.04,,,-99.99,FreeWX 2.04,2013-11-22 21:04:00,
2013-11-22 16:14:00,56.1,48.7,30.15,North,-999,0.0,0.0,76,0.04,,,-99.99,FreeWX 2.04,2013-11-22 21:14:00,
2013-11-22 16:24:00,55.9,48.6,30.15,North,-999,0.0,0.0,76,0.08,,,-99.99,FreeWX 2.04,2013-11-22 21:24:00,
2013-11-22 16:34:00,55.8,48.4,30.15,North,-999,0.0,0.0,76,0.08,,,-99.99,FreeWX 2.04,2013-11-22 21:34:00,
2013-11-22 16:44:00,55.4,48.0,30.15,North,-999,0.0,2.7,76,0.08,,,-99.99,FreeWX 2.04,2013-11-22 21:44:00,
2013-11-22 16:55:00,54.9,47.1,30.15,North,-999,0.0,3.6,75,0.04,,,-99.99,FreeWX 2.04,2013-11-22 21:55:00,
2013-11-22 17:05:00,54.3,46.6,30.15,North,-999,0.0,4.9,75,0.04,,,-99.99,FreeWX 2.04,2013-11-22 22:05:00,
2013-11-22 17:15:00,53.8,45.7,30.18,North,-999,0.0,4.0,74,0.04,,,-99.99,FreeWX 2.04,2013-11-22 22:15:00,
2013-11-22 17:25:00,53.2,45.1,30.18,North,-999,0.0,2.7,74,0.00,,,-99.99,FreeWX 2.04,2013-11-22 22:25:00,
2013-11-22 17:35:00,53.1,44.6,30.18,North,-999,0.0,0.0,73,0.00,,,-99.99,FreeWX 2.04,2013-11-22 22:35:00,
2013-11-22 17:45:00,52.7,44.6,30.18,North,-999,0.0,0.0,74,0.00,,,-99.99,FreeWX 2.04,2013-11-22 22:45:00,
2013-11-22 17:55:00,52.3,43.9,30.21,North,-999,0.0,4.0,73,0.00,,,-99.99,FreeWX 2.04,2013-11-22 22:55:00,
2013-11-22 18:05:00,51.6,43.0,30.21,North,-999,0.0,0.0,72,0.00,,,-99.99,FreeWX 2.04,2013-11-22 23:05:00,
2013-11-22 18:15:00,51.4,42.8,30.21,North,-999,0.0,0.0,72,0.00,,,-99.99,FreeWX 2.04,2013-11-22 23:15:00,
2013-11-22 18:25:00,51.3,42.6,30.21,North,-999,0.0,0.0,72,0.00,,,-99.99,FreeWX 2.04,2013-11-22 23:25:00,
2013-11-22 18:35:00,51.1,42.4,30.21,North,-999,0.0,0.0,72,0.00,,,-99.99,FreeWX 2.04,2013-11-22 23:35:00,
2013-11-22 18:45:00,50.7,42.1,30.21,North,-999,0.0,0.0,72,0.00,,,-99.99,FreeWX 2.04,2013-11-22 23:45:00,
2013-11-22 18:55:00,50.5,41.5,30.21,North,-999,0.0,0.0,71,0.00,,,-99.99,FreeWX 2.04,2013-11-22 23:55:00,
2013-11-22 19:05:00,50.4,41.4,30.21,North,-999,0.0,2.7,71,0.00,,,-99.99,FreeWX 2.04,2013-11-23 00:05:00,
2013-11-22 19:15:00,50.2,41.2,30.24,North,-999,0.0,4.0,71,0.00,,,-99.99,FreeWX 2.04,2013-11-23 00:15:00,
2013-11-22 19:25:00,50.0,40.6,30.24,North,-999,0.0,0.0,70,0.00,,,-99.99,FreeWX 2.04,2013-11-23 00:25:00,
2013-11-22 19:35:00,49.8,40.5,30.24,North,-999,0.0,0.0,70,0.00,,,-99.99,FreeWX 2.04,2013-11-23 00:35:00,
2013-11-22 19:45:00,49.3,39.6,30.24,North,-999,0.0,0.0,69,0.00,,,-99.99,FreeWX 2.04,2013-11-23 00:45:00,
2013-11-22 19:55:00,48.9,39.2,30.24,North,-999,0.0,4.5,69,0.00,,,-99.99,FreeWX 2.04,2013-11-23 00:55:00,
2013-11-22 20:05:00,48.7,38.7,30.24,North,-999,0.0,4.0,68,0.00,,,-99.99,FreeWX 2.04,2013-11-23 01:05:00,
2013-11-22 20:15:00,48.4,37.9,30.24,North,-999,0.0,0.0,67,0.00,,,-99.99,FreeWX 2.04,2013-11-23 01:15:00,
2013-11-22 20:25:00,48.2,37.4,30.24,North,-999,0.0,0.0,66,0.00,,,-99.99,FreeWX 2.04,2013-11-23 01:25:00,
2013-11-22 20:35:00,48.2,37.4,30.24,North,-999,0.0,0.0,66,0.00,,,-99.99,FreeWX 2.04,2013-11-23 01:35:00,
2013-11-22 20:45:00,47.8,36.3,30.24,North,-999,0.0,2.7,64,0.00,,,-99.99,FreeWX 2.04,2013-11-23 01:45:00,
2013-11-22 20:55:00,47.7,36.1,30.24,North,-999,0.0,0.0,64,0.00,,,-99.99,FreeWX 2.04,2013-11-23 01:55:00,
2013-11-22 21:05:00,47.5,35.6,30.24,North,-999,0.0,0.0,63,0.00,,,-99.99,FreeWX 2.04,2013-11-23 02:05:00,
2013-11-22 21:15:00,46.9,33.4,30.24,North,-999,0.0,5.8,59,0.00,,,-99.99,FreeWX 2.04,2013-11-23 02:15:00,
2013-11-22 21:25:00,46.8,32.4,30.27,North,-999,0.0,2.7,57,0.00,,,-99.99,FreeWX 2.04,2013-11-23 02:25:00,
2013-11-22 21:35:00,46.4,31.1,30.27,North,-999,0.0,5.8,55,0.00,,,-99.99,FreeWX 2.04,2013-11-23 02:35:00,
2013-11-22 21:45:00,45.9,28.8,30.30,South,174,1.0,6.9,51,0.00,,,-99.99,FreeWX 2.04,2013-11-23 02:45:00,
2013-11-22 21:55:00,45.7,29.1,30.27,North,-999,0.0,4.0,52,0.00,,,-99.99,FreeWX 2.04,2013-11-23 02:55:00,
2013-11-22 22:05:00,45.3,28.2,30.27,North,-999,0.0,5.8,51,0.00,,,-99.99,FreeWX 2.04,2013-11-23 03:05:00,
2013-11-22 22:15:00,45.3,27.3,30.27,SSE,168,1.0,7.8,49,0.00,,,-99.99,FreeWX 2.04,2013-11-23 03:15:00,
2013-11-22 22:25:00,45.1,27.7,30.27,North,-999,0.0,0.0,50,0.00,,,-99.99,FreeWX 2.04,2013-11-23 03:25:00,
2013-11-22 22:35:00,45.0,27.5,30.27,North,-999,0.0,0.0,50,0.00,,,-99.99,FreeWX 2.04,2013-11-23 03:35:00,
2013-11-22 22:45:00,45.0,27.5,30.27,North,-999,0.0,0.0,50,0.00,,,-99.99,FreeWX 2.04,2013-11-23 03:45:00,
2013-11-22 22:55:00,44.8,26.8,30.27,North,-999,0.0,3.6,49,0.00,,,-99.99,FreeWX 2.04,2013-11-23 03:55:00,
2013-11-22 23:05:00,44.6,26.6,30.27,North,-999,0.0,3.6,49,0.00,,,-99.99,FreeWX 2.04,2013-11-23 04:05:00,
2013-11-22 23:15:00,44.6,26.6,30.27,North,-999,0.0,0.0,49,0.00,,,-99.99,FreeWX 2.04,2013-11-23 04:15:00,
2013-11-22 23:25:00,44.2,26.8,30.27,North,-999,0.0,0.0,50,0.00,,,-99.99,FreeWX 2.04,2013-11-23 04:25:00,
2013-11-22 23:35:00,44.2,26.8,30.27,North,-999,0.0,0.0,50,0.00,,,-99.99,FreeWX 2.04,2013-11-23 04:35:00,
2013-11-22 23:45:00,44.2,26.2,30.30,North,-999,0.0,0.0,49,0.00,,,-99.99,FreeWX 2.04,2013-11-23 04:45:00,
2013-11-22 23:55:00,44.1,26.1,30.30,North,-999,0.0,0.0,49,0.00,,,-99.99,FreeWX 2.04,2013-11-23 04:55:00,